Location: Recife
(8.0585°S, 34.8848°W)
Time: 13:20:17
(UTC-03:00)

Transit 4A - Pass Details

Date: 15 April 2026
Orbit: 861 x 980 km, 66.8° (Epoch: 12 May)

Event Time Altitude Azimuth Distance (km) Brightness Sun altitude
Rises 13:26:26 0° 229° (SW) 3,445 11.0 53.6°
Reaches altitude 10° 13:29:44 10° 248° (WSW) 2,512 10.7 52.9°
Maximum altitude 13:33:25 17° 288° (WNW) 2,047 10.8 52.1°
Drops below altitude 10° 13:37:08 10° 328° (NNW) 2,537 10.9 51.3°
Sets 13:40:31 0° 347° (NNW) 3,493 11.2 50.6°
